Hourly Weather Bolshie Pavlovichi

Today, 18 June, Friday

Time Temperature Precipitation Wind Pressure Humidity
00:00 +16°C° 0 mm 1 mps 755 mmHg 82%
01:00 +15°C° 0 mm 1 mps 755 mmHg 84%
02:00 +15°C° 0 mm 1 mps 755 mmHg 85%
03:00 +16°C° 0 mm 1 mps 755 mmHg 85%
04:00 +16°C° 0 mm 1 mps 755 mmHg 84%
05:00 +16°C° 0 mm 1 mps 755 mmHg 84%
06:00 +19°C° 0 mm 1 mps 756 mmHg 78%
07:00 +21°C° 0 mm 1 mps 756 mmHg 73%
08:00 +23°C° 0 mm 1 mps 756 mmHg 68%
09:00 +24°C° 0 mm 2 mps 756 mmHg 64%
10:00 +25°C° 0 mm 2 mps 756 mmHg 60%
11:00 +26°C° 0 mm 3 mps 756 mmHg 56%
12:00 +26°C° 0 mm 3 mps 755 mmHg 56%
13:00 +27°C° 0 mm 3 mps 755 mmHg 55%
14:00 +27°C° 0 mm 3 mps 755 mmHg 54%
15:00 +27°C° 0 mm 3 mps 755 mmHg 57%
16:00 +27°C° 0 mm 3 mps 755 mmHg 60%
17:00 +26°C° 0 mm 3 mps 755 mmHg 63%
18:00 +25°C° 0 mm 3 mps 755 mmHg 69%
19:00 +23°C° 0 mm 2 mps 754 mmHg 76%
20:00 +20°C° 0 mm 2 mps 754 mmHg 82%
21:00 +19°C° 0 mm 2 mps 755 mmHg 84%
22:00 +18°C° 0 mm 2 mps 755 mmHg 86%
23:00 +17°C° 0 mm 2 mps 755 mmHg 89%

Tomorrow, 19 June, Saturday

Time Temperature Precipitation Wind Pressure Humidity
00:00 +17°C° 0 mm 2 mps 755 mmHg 90%
01:00 +16°C° 0 mm 2 mps 755 mmHg 91%
02:00 +16°C° 0 mm 2 mps 755 mmHg 92%
03:00 +16°C° 0 mm 2 mps 755 mmHg 91%
04:00 +17°C° 0 mm 2 mps 755 mmHg 91%
05:00 +17°C° 0 mm 2 mps 755 mmHg 90%
06:00 +19°C° 0 mm 2 mps 755 mmHg 85%
07:00 +20°C° 0 mm 2 mps 755 mmHg 79%
08:00 +22°C° 0 mm 3 mps 755 mmHg 74%
09:00 +24°C° 0 mm 3 mps 755 mmHg 70%
10:00 +25°C° 0 mm 3 mps 755 mmHg 65%
11:00 +26°C° 0 mm 3 mps 754 mmHg 61%
12:00 +27°C° 0 mm 3 mps 754 mmHg 59%
13:00 +27°C° 0 mm 3 mps 754 mmHg 58%
14:00 +28°C° 0 mm 3 mps 754 mmHg 56%
15:00 +27°C° 0 mm 3 mps 753 mmHg 58%
16:00 +27°C° 0 mm 3 mps 753 mmHg 61%
17:00 +27°C° 0 mm 3 mps 753 mmHg 64%
18:00 +25°C° 0 mm 3 mps 753 mmHg 71%
19:00 +24°C° 0 mm 2 mps 753 mmHg 77%
20:00 +21°C° 0 mm 2 mps 753 mmHg 84%
21:00 +20°C° 0 mm 2 mps 753 mmHg 86%
22:00 +19°C° 0 mm 2 mps 753 mmHg 89%
23:00 +19°C° 0 mm 3 mps 753 mmHg 91%

Day after tomorrow, 20 June, Sunday

Time Temperature Precipitation Wind Pressure Humidity
00:00 +18°C° 0 mm 2 mps 753 mmHg 92%
01:00 +18°C° 0 mm 2 mps 753 mmHg 93%
02:00 +18°C° 0 mm 2 mps 753 mmHg 93%
03:00 +18°C° 0 mm 2 mps 753 mmHg 93%
04:00 +18°C° 0 mm 2 mps 753 mmHg 93%
05:00 +19°C° 0 mm 2 mps 753 mmHg 92%
06:00 +20°C° 0 mm 2 mps 753 mmHg 87%
07:00 +23°C° 0 mm 2 mps 753 mmHg 81%
08:00 +25°C° 0 mm 3 mps 753 mmHg 76%
09:00 +26°C° 0 mm 3 mps 753 mmHg 71%
10:00 +27°C° 0 mm 3 mps 753 mmHg 67%
11:00 +28°C° 0 mm 3 mps 752 mmHg 63%
12:00 +28°C° 0 mm 3 mps 752 mmHg 61%
13:00 +29°C° 0 mm 3 mps 752 mmHg 60%
14:00 +29°C° 0 mm 4 mps 752 mmHg 59%
15:00 +29°C° 0 mm 3 mps 752 mmHg 62%
16:00 +28°C° 0 mm 3 mps 751 mmHg 65%
17:00 +28°C° 0 mm 3 mps 751 mmHg 68%
18:00 +27°C° 0 mm 3 mps 751 mmHg 74%
19:00 +25°C° 0 mm 3 mps 751 mmHg 80%
20:00 +24°C° 0 mm 2 mps 751 mmHg 86%
21:00 +23°C° 0 mm 2 mps 751 mmHg 88%
22:00 +21°C° 0 mm 2 mps 751 mmHg 91%
23:00 +20°C° 0 mm 2 mps 751 mmHg 93%

21 June, Monday

Time Temperature Precipitation Wind Pressure Humidity
00:00 +20°C° 0 mm 2 mps 751 mmHg 93%
01:00 +19°C° 0 mm 2 mps 751 mmHg 93%
02:00 +19°C° 0 mm 2 mps 751 mmHg 93%
03:00 +19°C° 0 mm 2 mps 751 mmHg 93%
04:00 +19°C° 0 mm 2 mps 751 mmHg 93%
05:00 +19°C° 0 mm 2 mps 751 mmHg 92%
06:00 +20°C° 0 mm 2 mps 751 mmHg 86%
07:00 +22°C° 0 mm 3 mps 751 mmHg 79%
08:00 +23°C° 0 mm 4 mps 750 mmHg 73%
09:00 +25°C° 0 mm 4 mps 750 mmHg 66%
10:00 +27°C° 0 mm 4 mps 750 mmHg 60%
11:00 +28°C° 0 mm 5 mps 750 mmHg 53%
12:00 +28°C° 0 mm 5 mps 750 mmHg 53%
13:00 +29°C° 0 mm 5 mps 749 mmHg 52%
14:00 +29°C° 0 mm 5 mps 749 mmHg 52%
15:00 +29°C° 0 mm 5 mps 749 mmHg 56%
16:00 +29°C° 0 mm 5 mps 748 mmHg 60%
17:00 +29°C° 0 mm 5 mps 748 mmHg 64%
18:00 +27°C° 0 mm 5 mps 748 mmHg 69%
19:00 +26°C° 0 mm 4 mps 748 mmHg 75%
20:00 +25°C° 0 mm 4 mps 748 mmHg 80%
21:00 +23°C° 0 mm 4 mps 748 mmHg 84%
22:00 +22°C° 0 mm 4 mps 748 mmHg 87%
23:00 +21°C° 0 mm 3 mps 748 mmHg 91%

22 June, Tuesday

Time Temperature Precipitation Wind Pressure Humidity
00:00 +21°C° 0 mm 3 mps 748 mmHg 92%
01:00 +20°C° 0 mm 3 mps 748 mmHg 93%
02:00 +20°C° 0 mm 3 mps 748 mmHg 95%
03:00 +20°C° 0 mm 3 mps 748 mmHg 94%
04:00 +20°C° 0 mm 3 mps 748 mmHg 94%
05:00 +20°C° 0 mm 3 mps 748 mmHg 93%
06:00 +22°C° 0 mm 4 mps 748 mmHg 87%
07:00 +23°C° 0 mm 4 mps 748 mmHg 81%
08:00 +26°C° 0 mm 5 mps 748 mmHg 75%
09:00 +27°C° 0 mm 5 mps 748 mmHg 70%
10:00 +28°C° 0 mm 5 mps 748 mmHg 66%
11:00 +29°C° 0 mm 5 mps 748 mmHg 61%
12:00 +30°C° 0 mm 5 mps 748 mmHg 59%
13:00 +30°C° 0 mm 5 mps 748 mmHg 58%
14:00 +32°C° 0 mm 5 mps 748 mmHg 56%
15:00 +30°C° 0 mm 5 mps 748 mmHg 59%
16:00 +30°C° 0 mm 4 mps 748 mmHg 61%
17:00 +30°C° 0 mm 4 mps 748 mmHg 63%
18:00 +29°C° 0 mm 4 mps 748 mmHg 70%
19:00 +27°C° 0 mm 3 mps 748 mmHg 77%
20:00 +26°C° 0 mm 3 mps 748 mmHg 83%
21:00 +25°C° 0 mm 3 mps 748 mmHg 85%
22:00 +24°C° 0 mm 3 mps 749 mmHg 87%
23:00 +22°C° 0 mm 3 mps 749 mmHg 89%

23 June, Wednesday

Time Temperature Precipitation Wind Pressure Humidity
00:00 +21°C° 0 mm 3 mps 749 mmHg 91%
01:00 +21°C° 0 mm 3 mps 749 mmHg 93%
02:00 +20°C° 0 mm 2 mps 749 mmHg 95%
03:00 +20°C° 0 mm 2 mps 749 mmHg 95%
04:00 +21°C° 0 mm 2 mps 749 mmHg 95%
05:00 +21°C° 0 mm 2 mps 749 mmHg 95%
06:00 +24°C° 0 mm 3 mps 750 mmHg 88%
07:00 +25°C° 0 mm 3 mps 750 mmHg 81%
08:00 +27°C° 0 mm 4 mps 750 mmHg 74%
09:00 +28°C° 0 mm 4 mps 750 mmHg 69%
10:00 +30°C° 0 mm 4 mps 750 mmHg 63%
11:00 +32°C° 0 mm 5 mps 750 mmHg 57%
12:00 +32°C° 0 mm 5 mps 750 mmHg 56%
13:00 +33°C° 0 mm 5 mps 750 mmHg 55%
14:00 +33°C° 0 mm 5 mps 750 mmHg 54%
15:00 +33°C° 0 mm 5 mps 749 mmHg 56%
16:00 +33°C° 0 mm 4 mps 749 mmHg 59%
17:00 +32°C° 0 mm 4 mps 749 mmHg 61%
18:00 +30°C° 0 mm 3 mps 749 mmHg 68%
19:00 +28°C° 0 mm 3 mps 749 mmHg 74%
20:00 +27°C° 0 mm 3 mps 749 mmHg 81%
21:00 +26°C° 0 mm 3 mps 749 mmHg 82%
22:00 +25°C° 0 mm 3 mps 749 mmHg 84%
23:00 +24°C° 0 mm 3 mps 749 mmHg 86%
Show more